Main page
METAR-TAF:

METAR-TAF

Airports :

Ardabil, Iran

Ardabil Airport

latitude: 38-19-35N, longitude: 048-25-28E, elevation: 1315 m

Current weather observation

The report was made 17 minutes ago, at 17:00 UTC
Wind 14 kt from the East/Northeast
Temperature 15°C
Humidity 59%
Pressure 1017 hPa
Visibility 10 km or more
Few clouds at a height of 3000 ft
Scattered clouds at a height of 7000 ft

METAR: OITL 231700Z 06014KT 9999 FEW030 SCT070 15/07 Q1017

Time: 21:47 (17:17 UTC)


TAF: missing

Weather observations and forecasts of more than 4000 airports (METAR and TAF reports).

The available stations are represented by yellow and red dots on the map.

Hover mouse over dot to see the name of the station.

Then click to see weather observations and forecasts.

To change the map : click on the green buttons with a black cross to zoom in, on the green button with a dash to zoom out, or on the green arrows for adjacent maps.


METAR-TAF: